Torna al catalogo

ONEWEB-0693

AttivoComunicazioniPO
NORAD 61601·PAYLOAD·🇬🇧 United Kingdom

Lanciato Oct 20, 2024 da Vandenberg Space Force Base

Loading…

Prossimi Passaggi (prossime 24 ore)

TLE

AggiornatoSource: CelesTrak SupGP

Epoca: Sep 14, 2026, 17:56 UTC

1 61601C 24188H   26257.74772407  .00001419  00000+0  36578-2 0  2579
2 61601  87.9189 348.1023 0002538  90.8379  21.2732 13.17648761    15

Traccia ONEWEB-0693 in tempo reale con AllMySat

Download on the App Store